This demonstration page uses our WeatherBlox Daily Observations layout. Learn more.

Left ArrowRight Arrow

Hourly Observations for August 14, 2020

Temp ( °F °C ) Dew Point ( °F °C ) Humidity (%) Winds ( mph kmh ) Pressure ( in mb ) Visibility ( mi km ) Precip ( " mm )
12:54 am 00:54 Clear 77 25 70 21.1 79 79 SSE 10 17 29.92 1013 10 16.0934 0 0
1:54 am 01:54 Clear 75 23.9 69 20.6 82 82 S 10 17 29.91 1013 10 16.0934 0 0
2:54 am 02:54 Clear 73 22.8 69 20.6 87 87 undefined N/A 29.91 1013 9 14.48406 0 0
3:54 am 03:54 Clear 72 22.2 69 20.6 91 91 S 8 13 29.91 1013 9 14.48406 0 0
4:54 am 04:54 Clear 71 21.7 68 20 90 90 SSE 7 11 29.91 1013 9 14.48406 0 0
5:54 am 05:54 Clear 71 21.7 67 19.4 87 87 S 3 6 29.91 1013 9 14.48406 0 0
6:54 am 06:54 Sunny 69 20.6 67 19.4 93 93 S 7 11 29.92 1013 7 11.26538 0 0
7:54 am 07:54 Sunny 73 22.8 69 20.6 87 87 SSE 9 15 29.92 1013 8 12.87472 0 0
8:54 am 08:54 Sunny 77 25 70 21.1 79 79 SSE 10 17 29.92 1013 9 14.48406 0 0
9:54 am 09:54 Sunny 81 27.2 71 21.7 72 72 S 13 20 29.91 1013 9 14.48406 0 0
10:54 am 10:54 Mostly Sunny 84 28.9 72 22.2 67 67 SSE 14 22 29.9 1013 9 14.48406 0 0
11:10 am 11:10 Mostly Cloudy 85 29.4 72 22.2 65 65 S 13 20 29.87 1011 9 14.48406 0 0
11:39 am 11:39 Partly Cloudy 85 29.4 72 22.2 65 65 SSW 14 22 29.88 1012 9 14.48406 0 0
11:54 am 11:54 Mostly Sunny 86 30 71 21.7 61 61 S 14 22 29.92 1013 9 14.48406 0 0
12:54 pm 12:54 Mostly Cloudy 86 30 71 21.7 61 61 SSW 10 17 29.93 1013 9 14.48406 0 0
1:54 pm 13:54 Mostly Sunny 90 32.2 70 21.1 52 52 S 13 20 29.9 1012 9 14.48406 0 0
2:54 pm 14:54 Partly Cloudy with Light Rain 85 29.4 70 21.1 61 61 SSE 8 13 29.91 1013 9 14.48406 0.001 0.001
3:54 pm 15:54 Mostly Sunny 90 32.2 71 21.7 54 54 SSW 15 24 29.87 1012 9 14.48406 0.001 0.001
4:54 pm 16:54 Sunny 85 29.4 70 21.1 61 61 SW 5 7 29.9 1012 9 14.48406 0 0
5:54 pm 17:54 Sunny 84 28.9 71 21.7 65 65 SW 5 7 29.9 1013 8 12.87472 0 0
6:54 pm 18:54 Sunny 80 26.7 71 21.7 74 74 S 8 13 29.88 1012 8 12.87472 0 0
7:54 pm 19:54 Sunny 83 28.3 71 21.7 67 67 Calm 29.89 1012 9 14.48406 0 0
8:54 pm 20:54 Mostly Cloudy 80 26.7 72 22.2 76 76 NNW 10 17 29.91 1013 9 14.48406 0 0
9:54 pm 21:54 Mostly Clear 77 25 68 20 74 74 NNW 9 15 29.93 1014 10 16.0934 0 0
10:54 pm 22:54 Mostly Cloudy 77 25 68 20 74 74 NNW 5 7 29.94 1014 10 16.0934 0 0
11:54 pm 23:54 Mostly Cloudy 74 23.3 68 20 82 82 N 6 9 29.96 1015 10 16.0934 0 0

Powered by AerisWeather